Location: Edoum�
(0.9447°N, 10.6482°E)
Time: 20:02:02
(UTC+00:00)

ARIANE 5 DEB (SYLDA) - Visible Passes

Search period start: 25 September 2020 00:00
Search period end: 05 October 2020 00:00
Orbit: 572 x 35684 km, 4.1° (Epoch: 24 September)

Date Brightness Start Highest point End Pass type
(mag) Time Alt. Az. Time Alt. Az. Time Alt. Az.
25 Sep 6.4 04:47:58 10° W 06:39:19 82° WSW 14:48:42 10° E visible
26 Sep 6.4 01:59:10 70° SW 02:03:09 79° S 11:50:14 10° E visible
26 Sep 7.6 23:11:56 20° E 23:11:56 20° E 08:36:45 10° E visible
27 Sep 5.8 19:57:35 10° W 19:58:06 12° W 19:58:06 12° W visible
29 Sep 6.6 04:13:51 14° W 06:31:47 87° SSW 14:14:19 10° E visible
30 Sep 6.5 01:26:37 78° S 01:26:37 78° S 11:14:51 10° E visible
30 Sep 7.9 22:39:23 12° E 22:39:23 12° E 22:41:54 10° E visible
01 Oct 10.3 02:52:52 10° E 06:25:42 30° E 07:55:51 10° E visible
01 Oct 4.6 19:22:18 10° W 19:25:18 29° W 19:25:18 29° W visible
03 Oct 6.9 03:41:17 23° W 04:28:40 85° S 13:39:50 10° E visible
04 Oct 6.7 00:54:02 68° ESE 00:54:02 68° ESE 10:39:07 10° E visible
